• In Uzbekistan
  • List of Countries
  • For 7 days
  • Water Temperature
  • Satellite Maps
  • Weather Map
  • Weather Widgets
  • user-avatar
    Login

    Hourly Weather Bamenda

    Today, 18 October, Thursday

    Time Temperature Precipitation Wind Pressure Humidity
    00:00 +17°C° 0.8 mm 0 mps 641 mmHg 91%
    01:00 +17°C° 0.8 mm 0 mps 641 mmHg 91%
    02:00 +18°C° 0.2 mm 1 mps 641 mmHg 91%
    03:00 +18°C° 0.2 mm 1 mps 641 mmHg 90%
    04:00 +18°C° 0.2 mm 1 mps 641 mmHg 90%
    05:00 +19°C° 0.1 mm 1 mps 641 mmHg 90%
    06:00 +19°C° 0.1 mm 1 mps 641 mmHg 89%
    07:00 +19°C° 0.1 mm 1 mps 641 mmHg 89%
    08:00 +21°C° 0.1 mm 1 mps 642 mmHg 81%
    09:00 +21°C° 0.1 mm 0 mps 643 mmHg 74%
    10:00 +23°C° 0.1 mm 0 mps 644 mmHg 67%
    11:00 +26°C° 0.8 mm 1 mps 643 mmHg 67%
    12:00 +26°C° 0.8 mm 1 mps 642 mmHg 68%
    13:00 +26°C° 0.8 mm 1 mps 642 mmHg 69%
    14:00 +25°C° 2.1 mm 1 mps 641 mmHg 73%
    15:00 +24°C° 2.1 mm 1 mps 640 mmHg 78%
    16:00 +23°C° 2.1 mm 1 mps 640 mmHg 82%
    17:00 +22°C° 1.9 mm 1 mps 640 mmHg 85%
    18:00 +19°C° 1.9 mm 0 mps 640 mmHg 88%
    19:00 +17°C° 1.9 mm 0 mps 640 mmHg 91%
    20:00 +17°C° 0.9 mm 0 mps 640 mmHg 91%
    21:00 +17°C° 0.9 mm 0 mps 641 mmHg 91%
    22:00 +17°C° 0.9 mm 0 mps 641 mmHg 91%
    23:00 +17°C° 0.1 mm 0 mps 641 mmHg 91%

    Tomorrow, 19 October, Friday

    Time Temperature Precipitation Wind Pressure Humidity
    00:00 +18°C° 0.1 mm 1 mps 640 mmHg 92%
    01:00 +18°C° 0.1 mm 1 mps 640 mmHg 92%
    02:00 +18°C° 0 mm 1 mps 640 mmHg 91%
    03:00 +18°C° 0 mm 1 mps 640 mmHg 91%
    04:00 +18°C° 0 mm 1 mps 639 mmHg 91%
    05:00 +18°C° 0 mm 1 mps 640 mmHg 90%
    06:00 +18°C° 0 mm 1 mps 640 mmHg 90%
    07:00 +19°C° 0 mm 1 mps 641 mmHg 89%
    08:00 +21°C° 0 mm 1 mps 642 mmHg 80%
    09:00 +23°C° 0 mm 1 mps 643 mmHg 71%
    10:00 +26°C° 0 mm 1 mps 644 mmHg 63%
    11:00 +26°C° 0 mm 1 mps 643 mmHg 59%
    12:00 +27°C° 0 mm 1 mps 643 mmHg 56%
    13:00 +27°C° 0 mm 2 mps 642 mmHg 53%
    14:00 +27°C° 0.2 mm 1 mps 642 mmHg 57%
    15:00 +26°C° 0.2 mm 1 mps 641 mmHg 61%
    16:00 +25°C° 0.2 mm 1 mps 640 mmHg 65%
    17:00 +24°C° 0.4 mm 1 mps 640 mmHg 72%
    18:00 +22°C° 0.4 mm 1 mps 640 mmHg 79%
    19:00 +18°C° 0.4 mm 0 mps 640 mmHg 86%
    20:00 +17°C° 0.2 mm 0 mps 640 mmHg 87%
    21:00 +19°C° 0.2 mm 1 mps 640 mmHg 88%
    22:00 +19°C° 0.2 mm 1 mps 641 mmHg 89%
    23:00 +19°C° 0.1 mm 1 mps 640 mmHg 89%

    Day after tomorrow, 20 October, Saturday

    Time Temperature Precipitation Wind Pressure Humidity
    00:00 +18°C° 0.1 mm 1 mps 640 mmHg 89%
    01:00 +18°C° 0.1 mm 1 mps 640 mmHg 89%
    02:00 +18°C° 0 mm 1 mps 640 mmHg 89%
    03:00 +18°C° 0 mm 1 mps 639 mmHg 89%
    04:00 +18°C° 0 mm 1 mps 639 mmHg 89%
    05:00 +18°C° 0 mm 1 mps 640 mmHg 87%
    06:00 +18°C° 0 mm 1 mps 640 mmHg 86%
    07:00 +19°C° 0 mm 1 mps 641 mmHg 85%
    08:00 +21°C° 0 mm 1 mps 642 mmHg 76%
    09:00 +23°C° 0 mm 1 mps 643 mmHg 67%
    10:00 +26°C° 0 mm 2 mps 644 mmHg 58%
    11:00 +26°C° 0 mm 2 mps 643 mmHg 56%
    12:00 +27°C° 0 mm 2 mps 643 mmHg 53%
    13:00 +28°C° 0 mm 2 mps 642 mmHg 51%
    14:00 +27°C° 0.2 mm 2 mps 642 mmHg 55%
    15:00 +26°C° 0.2 mm 2 mps 641 mmHg 60%
    16:00 +26°C° 0.2 mm 2 mps 640 mmHg 65%
    17:00 +24°C° 0.4 mm 1 mps 640 mmHg 73%
    18:00 +22°C° 0.4 mm 1 mps 640 mmHg 80%
    19:00 +18°C° 0.4 mm 0 mps 640 mmHg 88%
    20:00 +19°C° 0.2 mm 1 mps 640 mmHg 89%
    21:00 +19°C° 0.2 mm 1 mps 641 mmHg 90%
    22:00 +19°C° 0.2 mm 1 mps 641 mmHg 92%
    23:00 +18°C° 0 mm 1 mps 640 mmHg 92%

    21 October, Sunday

    Time Temperature Precipitation Wind Pressure Humidity
    00:00 +18°C° 0 mm 1 mps 640 mmHg 92%
    01:00 +18°C° 0 mm 1 mps 640 mmHg 91%
    02:00 +18°C° 0 mm 1 mps 640 mmHg 91%
    03:00 +18°C° 0 mm 1 mps 639 mmHg 90%
    04:00 +18°C° 0 mm 1 mps 639 mmHg 89%
    05:00 +18°C° 0 mm 1 mps 640 mmHg 88%
    06:00 +18°C° 0 mm 1 mps 640 mmHg 87%
    07:00 +19°C° 0 mm 1 mps 640 mmHg 86%
    08:00 +20°C° 0 mm 2 mps 641 mmHg 77%
    09:00 +23°C° 0 mm 2 mps 642 mmHg 68%
    10:00 +26°C° 0 mm 2 mps 643 mmHg 59%
    11:00 +26°C° 0.2 mm 2 mps 642 mmHg 59%
    12:00 +27°C° 0.2 mm 2 mps 642 mmHg 58%
    13:00 +27°C° 0.2 mm 3 mps 641 mmHg 58%
    14:00 +27°C° 0.7 mm 2 mps 641 mmHg 62%
    15:00 +26°C° 0.7 mm 2 mps 640 mmHg 66%
    16:00 +25°C° 0.7 mm 2 mps 640 mmHg 69%
    17:00 +24°C° 0.4 mm 2 mps 640 mmHg 76%
    18:00 +22°C° 0.4 mm 1 mps 640 mmHg 82%
    19:00 +20°C° 0.4 mm 1 mps 640 mmHg 88%
    20:00 +20°C° 0.1 mm 1 mps 640 mmHg 88%
    21:00 +19°C° 0.1 mm 1 mps 640 mmHg 88%
    22:00 +19°C° 0.1 mm 1 mps 640 mmHg 88%
    23:00 +19°C° 0 mm 1 mps 640 mmHg 87%

    22 October, Monday

    Time Temperature Precipitation Wind Pressure Humidity
    00:00 +19°C° 0 mm 1 mps 640 mmHg 86%
    01:00 +19°C° 0 mm 1 mps 639 mmHg 86%
    02:00 +19°C° 0 mm 1 mps 639 mmHg 86%
    03:00 +19°C° 0 mm 1 mps 639 mmHg 85%
    04:00 +19°C° 0 mm 1 mps 639 mmHg 85%
    05:00 +19°C° 0 mm 1 mps 639 mmHg 86%
    06:00 +19°C° 0 mm 1 mps 640 mmHg 86%
    07:00 +19°C° 0 mm 1 mps 640 mmHg 87%
    08:00 +21°C° 0.1 mm 1 mps 641 mmHg 80%
    09:00 +23°C° 0.1 mm 2 mps 642 mmHg 74%
    10:00 +25°C° 0.1 mm 2 mps 643 mmHg 67%
    11:00 +25°C° 0.7 mm 2 mps 642 mmHg 65%
    12:00 +26°C° 0.7 mm 3 mps 641 mmHg 62%
    13:00 +26°C° 0.7 mm 3 mps 641 mmHg 60%
    14:00 +26°C° 0.8 mm 3 mps 640 mmHg 62%
    15:00 +26°C° 0.8 mm 3 mps 640 mmHg 64%
    16:00 +25°C° 0.8 mm 2 mps 640 mmHg 66%
    17:00 +24°C° 0.2 mm 2 mps 639 mmHg 72%
    18:00 +22°C° 0.2 mm 1 mps 639 mmHg 79%
    19:00 +18°C° 0.2 mm 0 mps 639 mmHg 86%
    20:00 +18°C° 0.1 mm 0 mps 640 mmHg 85%
    21:00 +20°C° 0.1 mm 1 mps 640 mmHg 85%
    22:00 +20°C° 0.1 mm 1 mps 640 mmHg 85%
    23:00 +19°C° 0.1 mm 1 mps 640 mmHg 85%

    23 October, Tuesday

    Time Temperature Precipitation Wind Pressure Humidity
    00:00 +19°C° 0.1 mm 1 mps 640 mmHg 86%
    01:00 +19°C° 0.1 mm 1 mps 639 mmHg 87%
    02:00 +19°C° 0.2 mm 1 mps 639 mmHg 87%
    03:00 +19°C° 0.2 mm 1 mps 639 mmHg 87%
    04:00 +18°C° 0.2 mm 1 mps 639 mmHg 88%
    05:00 +19°C° 0.1 mm 1 mps 640 mmHg 87%
    06:00 +19°C° 0.1 mm 1 mps 640 mmHg 87%
    07:00 +19°C° 0.1 mm 1 mps 641 mmHg 86%
    08:00 +21°C° 0.3 mm 1 mps 641 mmHg 79%
    09:00 +24°C° 0.3 mm 2 mps 642 mmHg 71%
    10:00 +26°C° 0.3 mm 2 mps 643 mmHg 64%
    11:00 +26°C° 0.7 mm 2 mps 642 mmHg 63%
    12:00 +26°C° 0.7 mm 2 mps 642 mmHg 62%
    13:00 +26°C° 0.7 mm 3 mps 641 mmHg 61%
    14:00 +26°C° 0.7 mm 2 mps 641 mmHg 63%
    15:00 +25°C° 0.7 mm 2 mps 640 mmHg 66%
    16:00 +25°C° 0.7 mm 2 mps 640 mmHg 69%
    17:00 +23°C° 0.6 mm 1 mps 640 mmHg 75%
    18:00 +22°C° 0.6 mm 1 mps 640 mmHg 82%
    19:00 +18°C° 0.6 mm 0 mps 640 mmHg 88%
    20:00 +18°C° 0.3 mm 0 mps 640 mmHg 88%
    21:00 +17°C° 0.3 mm 0 mps 640 mmHg 89%
    22:00 +19°C° 0.3 mm 1 mps 641 mmHg 89%
    23:00 +19°C° 0.4 mm 1 mps 640 mmHg 90%
    Show more